Denver, CO

1:43 PM MDT on June 22, 2018 (GMT -0600)
Denver International

Weather History for KDEN - November, 2017

Change the Weather History Date:

Monday, November 20, 2017

  Actual Average Record
Temperature  
Mean Temperature 50 °F 36 °F  
Max Temperature 69 °F 50 °F 72 °F (1897)
Min Temperature 30 °F 22 °F 1 °F (1975)
Degree Days  
Heating Degree Days 15 29  
Month to date heating degree days 423 490  
Since 1 July heating degree days 1008 1071  
Cooling Degree Days 0 0  
Month to date cooling degree days 0 0  
Year to date cooling degree days 881 769  
Moisture  
Dew Point 7 °F    
Average Humidity 18    
Maximum Humidity 28    
Minimum Humidity 8    
Precipitation  
Precipitation 0.00 in 0.02 in 0.95 in (1979)
Month to date precipitation 0.27 0.45  
Year to date precipitation 11.46 13.79  
Snow  
Snow 0.00 in - - ()
Month to date snowfall T  
Since 1 July snowfall 2.8  
Since 1 September snowfall 2.8  
Snow Depth 0.00 in    
Sea Level Pressure  
Sea Level Pressure 29.73 in    
Wind  
Wind Speed 12 mph (SW)    
Max Wind Speed 30 mph    
Max Gust Speed 36 mph    
Visibility 10 miles    
Events      
T = Trace of Precipitation, MM = Missing Value Source: NWS Daily Summary

Daily Weather History Graph

Daily Weather History Graph

Search for Another Location

Airport or City:

Astronomy

Nov. 20, 2017 Rise Set
Actual Time 6:49 AM MST 4:38 PM MST
Civil Twilight 6:20 AM MST 5:08 PM MST
Nautical Twilight 5:47 AM MST 5:41 PM MST
Astronomical Twilight 5:15 AM MST 6:13 PM MST
Moon 8:34 AM MST (11/20) 6:36 PM MST (11/20)
Length of Visible Light 10h 48m
Length of Day
9h 49m
Waxing Crescent, 5% of the Moon is Illuminated
Nov 20
Waxing Crescent
Nov 26
First Quarter
Dec 3
Full
Dec 10
Last Quarter
Dec 17
New

Hourly Weather History & Observations

Time (MST) Temp. Windchill Dew Point Humidity Pressure Visibility Wind Dir Wind Speed Gust Speed Precip Events Conditions
12:53 AM 39.0 °F 31.0 °F 7.0 °F 27% 29.80 in 10.0 mi SSW 13.8 mph - N/A   Partly Cloudy
1:53 AM 43.0 °F 35.4 °F 3.9 °F 20% 29.76 in 10.0 mi SSW 16.1 mph - N/A   Scattered Clouds
2:53 AM 43.0 °F 36.0 °F 3.9 °F 20% 29.77 in 10.0 mi SSW 13.8 mph - N/A   Mostly Cloudy
3:53 AM 41.0 °F 34.7 °F 5.0 °F 23% 29.78 in 10.0 mi SW 10.4 mph - N/A   Mostly Cloudy
4:53 AM 41.0 °F 35.8 °F 5.0 °F 23% 29.77 in 10.0 mi SW 8.1 mph - N/A   Mostly Cloudy
5:53 AM 39.0 °F 35.7 °F 5.0 °F 24% 29.78 in 10.0 mi SSW 4.6 mph - N/A   Mostly Cloudy
6:53 AM 43.0 °F 41.3 °F 3.9 °F 20% 29.76 in 10.0 mi North 3.5 mph - N/A   Mostly Cloudy
7:53 AM 48.0 °F - 3.0 °F 16% 29.74 in 10.0 mi SW 9.2 mph - N/A   Mostly Cloudy
8:53 AM 48.9 °F - 8.1 °F 19% 29.74 in 10.0 mi SW 8.1 mph - N/A   Mostly Cloudy
9:53 AM 55.9 °F - 5.0 °F 13% 29.75 in 10.0 mi SSW 11.5 mph - N/A   Mostly Cloudy
10:53 AM 64.0 °F - 1.9 °F 8% 29.68 in 10.0 mi SW 11.5 mph - N/A   Mostly Cloudy
11:53 AM 66.0 °F - 3.0 °F 8% 29.66 in 10.0 mi WSW 13.8 mph - N/A   Mostly Cloudy
12:53 PM 66.9 °F - 3.9 °F 8% 29.65 in 10.0 mi WSW 11.5 mph 23.0 mph N/A   Mostly Cloudy
1:53 PM 68.0 °F - 7.0 °F 9% 29.62 in 10.0 mi West 20.7 mph - N/A   Scattered Clouds
2:53 PM 66.9 °F - 10.9 °F 11% 29.65 in 10.0 mi NNE 15.0 mph - N/A   Scattered Clouds
3:53 PM 60.1 °F - 12.0 °F 15% 29.70 in 10.0 mi ENE 12.7 mph - N/A   Mostly Cloudy
4:53 PM 59.0 °F - 8.1 °F 13% 29.74 in 10.0 mi SSE 6.9 mph - N/A   Mostly Cloudy
5:53 PM 54.0 °F - 10.0 °F 17% 29.76 in 10.0 mi South 6.9 mph - N/A   Mostly Cloudy
6:53 PM 46.9 °F - 16.0 °F 29% 29.76 in 10.0 mi SSE 12.7 mph - N/A   Mostly Cloudy
7:53 PM 55.0 °F - 10.9 °F 17% 29.75 in 10.0 mi WSW 10.4 mph - N/A   Mostly Cloudy
8:53 PM 55.9 °F - 10.0 °F 16% 29.76 in 10.0 mi WNW 17.3 mph 25.3 mph N/A   Mostly Cloudy
9:53 PM 57.9 °F - 5.0 °F 12% 29.73 in 10.0 mi West 24.2 mph 35.7 mph N/A   Mostly Cloudy
10:53 PM 55.9 °F - 6.1 °F 14% 29.74 in 10.0 mi WNW 15.0 mph - N/A   Mostly Cloudy
11:53 PM 53.1 °F - 10.9 °F 19% 29.74 in 10.0 mi SW 12.7 mph - N/A   Mostly Cloudy